Location: ?????
(42.2640°N, 43.4211°E)
Time: 15:23:35
(UTC+00:00)

COBE Rocket - Pass Details

Date: 07 August 2020
Orbit: 681 x 781 km, 97.1° (Epoch: 19 September)

Event Time Altitude Azimuth Distance (km) Brightness Sun altitude
Exits shadow 00:08:01 34° 255° (WSW) 1,132 4.4 -18.8°
Maximum altitude 00:08:21 34° 264° (W) 1,123 4.5 -18.7°
Drops below altitude 10° 00:12:36 10° 330° (NNW) 2,135 6.5 -18.2°
Sets 00:15:01 0° 340° (NNW) 3,052 7.4 -17.9°
